Beaver Island, MI

3:09 AM EDT on July 25, 2017 (GMT -0400)
Beaver Island

Weather History for KSJX - November, 2012

Change the Weather History Date:

Saturday, November 3, 2012

  Actual Average Record
Temperature  
Mean Temperature 34 °F -  
Max Temperature 36 °F 47 °F 67 °F (1961)
Min Temperature 33 °F 35 °F 19 °F (1991)
Degree Days  
Heating Degree Days 30    
Moisture  
Dew Point 27 °F    
Average Humidity 73    
Maximum Humidity 89    
Minimum Humidity 65    
Precipitation  
Precipitation 0.00 in - - ()
Sea Level Pressure  
Sea Level Pressure 30.20 in    
Wind  
Wind Speed 6 mph (North)    
Max Wind Speed 12 mph    
Max Gust Speed -    
Visibility 10 miles    
Events Snow    
Averages and records for this station are not official NWS values.
T = Trace of Precipitation, MM = Missing Value Source: NWS Daily Summary

Daily Weather History Graph

Daily Weather History Graph

Search for Another Location

Airport or City:

Trip Planner

Search our weather history database for the weather conditions in past years. The results will help you decide how hot, cold, wet, or windy it might be!

Date:

Astronomy

Nov. 03, 2012 Rise Set
Actual Time 8:25 AM EDT 6:25 PM EDT
Civil Twilight 7:54 AM EDT 6:56 PM EDT
Nautical Twilight 7:19 AM EDT 7:31 PM EDT
Astronomical Twilight 6:44 AM EDT 8:06 PM EDT
Moon 10:00 PM EDT (11/3) 12:34 PM EDT (11/3)
Length of Visible Light 11h 02m
Length of Day
9h 59m
Waning Gibbous, 80% of the Moon is Illuminated
Nov 3
Waning Gibbous
Nov 6
Last Quarter
Nov 13
New
Nov 20
First Quarter
Nov 28
Full

Hourly Weather History & Observations

Time (EDT) Temp. Windchill Dew Point Humidity Pressure Visibility Wind Dir Wind Speed Gust Speed Precip Events Conditions
12:16 AM 35.6 °F 29.2 °F 28.4 °F 75% 30.14 in 10.0 mi North 8.1 mph - N/A   Overcast
12:36 AM 34.9 °F 27.7 °F 29.3 °F 80% 30.14 in 4.0 mi NNE 9.2 mph - N/A Snow Light Snow
12:56 AM 33.4 °F 29.1 °F 30.4 °F 89% 30.15 in 5.0 mi NNW 4.6 mph - N/A Snow Light Snow
1:16 AM 33.6 °F 28.4 °F 30.6 °F 89% 30.15 in 10.0 mi North 5.8 mph - N/A   Mostly Cloudy
1:36 AM 34.0 °F 31.0 °F 30.7 °F 88% 30.15 in 10.0 mi NNE 3.5 mph - N/A   Overcast
1:56 AM 34.0 °F 28.8 °F 29.5 °F 84% 30.15 in 10.0 mi North 5.8 mph - N/A   Overcast
2:17 AM 34.2 °F 31.2 °F 28.4 °F 79% 30.16 in 10.0 mi North 3.5 mph - N/A   Overcast
2:36 AM 34.7 °F 28.8 °F 28.6 °F 78% 30.17 in 10.0 mi North 6.9 mph - N/A   Overcast
2:56 AM 34.3 °F 29.2 °F 28.4 °F 79% 30.17 in 10.0 mi North 5.8 mph - N/A   Overcast
3:16 AM 34.3 °F 29.2 °F 27.7 °F 77% 30.18 in 10.0 mi North 5.8 mph - N/A   Overcast
3:36 AM 34.3 °F 27.7 °F 27.5 °F 76% 30.18 in 10.0 mi NNE 8.1 mph - N/A   Overcast
3:56 AM 34.5 °F 30.4 °F 27.3 °F 75% 30.18 in 10.0 mi North 4.6 mph - N/A   Overcast
4:16 AM 34.3 °F 29.2 °F 26.8 °F 74% 30.17 in 10.0 mi North 5.8 mph - N/A   Overcast
4:37 AM 34.3 °F - 26.6 °F 73% 30.18 in 10.0 mi Calm Calm - N/A   Overcast
4:56 AM 34.5 °F 27.9 °F 27.5 °F 76% 30.18 in 10.0 mi North 8.1 mph - N/A   Overcast
5:16 AM 34.3 °F 30.2 °F 27.0 °F 74% 30.18 in 10.0 mi North 4.6 mph - N/A   Overcast
5:37 AM 34.3 °F 27.7 °F 27.0 °F 74% 30.18 in 10.0 mi North 8.1 mph - N/A   Overcast
5:56 AM 34.7 °F 29.6 °F 26.6 °F 72% 30.18 in 10.0 mi North 5.8 mph - N/A   Overcast
6:16 AM 34.7 °F 28.1 °F 27.0 °F 73% 30.19 in 10.0 mi North 8.1 mph - N/A   Overcast
6:36 AM 34.2 °F 28.2 °F 26.4 °F 73% 30.19 in 10.0 mi North 6.9 mph - N/A   Overcast
6:56 AM 34.0 °F 28.8 °F 27.5 °F 77% 30.20 in 7.0 mi North 5.8 mph - N/A   Overcast
7:16 AM 34.0 °F 28.0 °F 27.3 °F 77% 30.20 in 10.0 mi North 6.9 mph - N/A   Overcast
7:36 AM 33.4 °F 28.1 °F 28.4 °F 82% 30.20 in 10.0 mi North 5.8 mph - N/A   Overcast
7:57 AM 34.0 °F 27.2 °F 27.5 °F 77% 30.20 in 10.0 mi North 8.1 mph - N/A   Overcast
8:16 AM 34.0 °F 28.8 °F 27.5 °F 77% 30.20 in 10.0 mi North 5.8 mph - N/A   Overcast
8:36 AM 34.0 °F 28.8 °F 26.6 °F 74% 30.20 in 10.0 mi North 5.8 mph - N/A   Overcast
8:57 AM 34.0 °F 28.8 °F 26.6 °F 74% 30.21 in 10.0 mi North 5.8 mph - N/A   Overcast
9:16 AM 34.2 °F 30.0 °F 26.6 °F 74% 30.21 in 10.0 mi North 4.6 mph - N/A   Overcast
9:36 AM 34.3 °F 27.7 °F 26.4 °F 73% 30.22 in 10.0 mi North 8.1 mph - N/A   Overcast
9:56 AM 34.5 °F 29.4 °F 26.8 °F 73% 30.22 in 10.0 mi North 5.8 mph - N/A   Overcast
10:16 AM 34.7 °F 28.8 °F 26.6 °F 72% 30.22 in 10.0 mi North 6.9 mph - N/A   Overcast
10:56 AM 34.9 °F 27.7 °F 26.2 °F 71% 30.22 in 10.0 mi NNE 9.2 mph - N/A   Overcast
11:16 AM 34.9 °F 27.7 °F 26.1 °F 70% 30.22 in 10.0 mi NNE 9.2 mph - N/A   Overcast
11:37 AM 35.2 °F 28.8 °F 26.4 °F 70% 30.22 in 10.0 mi North 8.1 mph - N/A   Overcast
11:56 AM 35.2 °F 28.1 °F 25.9 °F 69% 30.22 in 10.0 mi North 9.2 mph - N/A   Overcast
12:16 PM 35.4 °F 29.7 °F 26.4 °F 70% 30.22 in 10.0 mi NNE 6.9 mph - N/A   Overcast
12:36 PM 35.8 °F 27.8 °F 26.4 °F 69% 30.22 in 10.0 mi NNE 11.5 mph - N/A   Overcast
12:57 PM 36.1 °F 29.3 °F 26.6 °F 68% 30.22 in 10.0 mi North 9.2 mph - N/A   Overcast
1:16 PM 36.5 °F 29.7 °F 26.6 °F 67% 30.22 in 10.0 mi NNE 9.2 mph - N/A   Overcast
1:36 PM 36.5 °F 31.0 °F 26.4 °F 67% 30.22 in 10.0 mi North 6.9 mph - N/A   Overcast
1:56 PM 36.5 °F 31.0 °F 26.8 °F 68% 30.21 in 10.0 mi North 6.9 mph - N/A   Overcast
2:16 PM 36.5 °F 29.7 °F 26.4 °F 67% 30.20 in 10.0 mi North 9.2 mph - N/A   Overcast
2:36 PM 36.5 °F 30.3 °F 26.6 °F 67% 30.21 in 10.0 mi NNW 8.1 mph - N/A   Overcast
2:56 PM 36.5 °F 31.0 °F 25.9 °F 65% 30.22 in 10.0 mi North 6.9 mph - N/A   Overcast
3:16 PM 36.5 °F 31.8 °F 26.4 °F 67% 30.22 in 10.0 mi North 5.8 mph - N/A   Overcast
3:37 PM 36.5 °F 33.9 °F 26.4 °F 67% 30.22 in 10.0 mi NNW 3.5 mph - N/A   Overcast
3:56 PM 36.5 °F 31.8 °F 26.4 °F 67% 30.22 in 10.0 mi NW 5.8 mph - N/A   Overcast
4:16 PM 36.5 °F 31.8 °F 26.2 °F 66% 30.22 in 10.0 mi NNW 5.8 mph - N/A   Overcast
4:36 PM 36.5 °F 33.9 °F 26.6 °F 67% 30.22 in 10.0 mi WNW 3.5 mph - N/A   Overcast
4:56 PM 36.5 °F 32.7 °F 27.0 °F 68% 30.21 in 10.0 mi NNW 4.6 mph - N/A   Overcast
5:17 PM 36.5 °F 31.8 °F 28.8 °F 74% 30.22 in 10.0 mi NW 5.8 mph - N/A   Overcast
5:36 PM 36.1 °F 32.3 °F 28.9 °F 75% 30.21 in 10.0 mi North 4.6 mph - N/A   Overcast
5:56 PM 36.5 °F 30.3 °F 28.2 °F 72% 30.21 in 10.0 mi NNW 8.1 mph - N/A   Overcast
6:17 PM 35.2 °F 31.2 °F 29.1 °F 78% 30.22 in 10.0 mi North 4.6 mph - N/A   Overcast
6:36 PM 36.0 °F 31.1 °F 26.8 °F 69% 30.21 in 10.0 mi North 5.8 mph - N/A   Overcast
6:56 PM 36.0 °F 33.3 °F 27.3 °F 71% 30.21 in 10.0 mi North 3.5 mph - N/A   Overcast
7:16 PM 36.0 °F 31.1 °F 27.1 °F 70% 30.21 in 10.0 mi North 5.8 mph - N/A   Overcast
7:36 PM 36.0 °F 32.1 °F 27.0 °F 70% 30.22 in 10.0 mi North 4.6 mph - N/A   Overcast
7:56 PM 36.0 °F 31.1 °F 26.8 °F 69% 30.22 in 10.0 mi North 5.8 mph - N/A   Overcast
8:16 PM 35.6 °F 30.7 °F 27.0 °F 71% 30.22 in 10.0 mi North 5.8 mph - N/A   Overcast
8:36 PM 35.6 °F 29.9 °F 26.8 °F 70% 30.23 in 10.0 mi NNW 6.9 mph - N/A   Overcast
8:57 PM 35.2 °F 29.5 °F 27.1 °F 72% 30.22 in 10.0 mi North 6.9 mph - N/A   Overcast
9:16 PM 35.2 °F 29.5 °F 27.0 °F 72% 30.22 in 10.0 mi North 6.9 mph - N/A   Overcast
9:36 PM 35.2 °F 28.8 °F 26.8 °F 71% 30.22 in 10.0 mi North 8.1 mph - N/A   Overcast
9:56 PM 35.2 °F 30.3 °F 27.0 °F 72% 30.22 in 10.0 mi North 5.8 mph - N/A   Overcast
10:16 PM 35.6 °F 30.7 °F 27.0 °F 71% 30.22 in 10.0 mi North 5.8 mph - N/A   Overcast
10:36 PM 35.2 °F 30.3 °F 27.1 °F 72% 30.22 in 10.0 mi NNE 5.8 mph - N/A   Overcast
10:56 PM 35.2 °F 30.3 °F 27.1 °F 72% 30.22 in 10.0 mi NE 5.8 mph - N/A   Overcast
11:16 PM 35.2 °F 32.4 °F 27.1 °F 72% 30.22 in 10.0 mi North 3.5 mph - N/A   Overcast
11:37 PM 35.2 °F 28.1 °F 27.1 °F 72% 30.22 in 10.0 mi NNE 9.2 mph - N/A   Overcast
11:56 PM 35.2 °F 31.2 °F 27.3 °F 73% 30.22 in 10.0 mi NNE 4.6 mph - N/A   Overcast